Weather in Antushevo

Russia / Vologda Oblast     59°54′06″N   37°40′25″E
temp.,
°C
wind,
m/s
gust,
m/s
humid.,
%
clouds,
%
prec.,
mm/h
press.,
hPa
HPBL,
m
16 september, thu
thu1600:00+4nne478698 0.1 1016471
03:00+6n3676100 0.1 1017519
06:00+5n3681100 0.0 1018473
09:00+6n4578100 0.1 1019698
12:00+7nnw3471100 0.1 1019850
15:00+7nw4567100 0.1 1019854
18:00+7n3565100 0.1 1019552
21:00+6n2469100 0.1 1020318
17 september, fri
fri1700:00+6n237797 0.2 1020280
03:00+5nnw238088 0.5 1020342
06:00+4nnw46865 0.1 1021333
09:00+6nnw578196 0.1 1021832
12:00+6nnw4589100 0.3 1021703
15:00+7n457641 0.4 1022895
18:00+7nne3469100 0.1 1022480
21:00+6ne4684100 0.1 1024376
18 september, sat
sat1800:00+4ne249244 0.1 1025144
03:00+6ne3583100 0.1 1026432
06:00+5ne477992 0.1 1027553
09:00+5ene46675 0.1 1029727
12:00+6ne345779 0.0 10291213
15:00+7nne445534 0.0 10291267
18:00+6ne356723 0.0 1029430
21:00+3ene36765 0.0 1030347
19 september, sun
sun1900:00+2ene347640 0.0 1030359
03:00+3ene237272 0.0 1030391
06:00+3ne236883 0.0 1031409
09:00+6ene456319 0.0 1031683
12:00+8ene355568 0.0 10311375
15:00+8ne4558100 0.0 10311267
18:00+6ene5773100 0.0 1031635
21:00+4ene59799 0.0 1032619
20 september, mon
mon2000:00+2e487693 0.0 1033545
03:00+4e476499 0.0 1033811
06:00+3e387149 0.0 1033514
09:00+5e486386 0.0 10331196
12:00+6e575873 0.0 10331313
15:00+7e565970 0.0 10321306
18:00+5e576294 0.0 1031934
21:00+4e4765100 0.0 1031857